Weather in Monte Carlo

Monaco     43°44′30″N   7°25′44″E
temp.,
°C
wind,
m/s
gust,
m/s
humid.,
%
clouds,
%
prec.,
mm/h
press.,
hPa
HPBL,
m
11 may, tue
tue1123:00+16ne6785100 1.3 1012136
02:00+15ese5595100 3.8 1013252
05:00+15ene3493100 4.2 1011228
08:00+15wsw1193100 8.6 101072
11:00+16ssw3482100 2.3 1010245
14:00+15ssw348353 2.8 1009246
17:00+16sw46764 1.3 1008474
20:00+16ene33805 1.7 1007195
12 may, wed
wed1223:00+16nne33730 0.0 100766
02:00+15wnw22700 0.0 1008101
05:00+14wnw236635 0.0 1008120
08:00+14w45763 0.1 1009312
11:00+15ssw22715 0.0 1009189
14:00+15se22741 0.0 1009169
17:00+17e35653 0.0 1007428
20:00+17wnw12655 0.0 100697
13 may, thu
thu1323:00+15ne23735 0.0 1006126
02:00+15w11633 0.0 100567
05:00+15se22715 0.0 1005244
08:00+15ssw33776 0.0 1006554
11:00+15sw33741 0.1 1005343
14:00+15s32743 0.2 1005357
17:00+14e23780 0.1 1004250
20:00+16e34732 0.1 1004280
14 may, fri
fri1423:00+15ese1177100 0.0 1005131
02:00+15n3372100 0.0 1006112
05:00+14nne2264100 0.0 1006123
08:00+15ne226963 0.0 1007307
11:00+15sse33709 0.1 1008470
14:00+15ssw557270 0.1 1008427
17:00+15se22715 0.1 1007249
20:00+15ene667217 0.1 1007457
15 may, sat
sat1523:00+15nne446929 0.1 1008246
02:00+14wsw12625 0.1 1009262
05:00+14wnw34667 0.0 1009345
08:00+14w346075 0.0 1010260
11:00+15sw4473100 0.0 1012419
14:00+15s3368100 0.0 1011341
17:00+15e326994 0.0 1010257
20:00+16ssw22665 0.0 1009327